Regional Weather Roundup
Issued by NWS

Home | Current Version | Previous Version | Graphics & Text | Print | Product List | Glossary On
Versions: 1 2 3 4 5 6 7 8 9 10 11 12 13 14 15 16 17 18 19 20 21 22 23 24 25 26 27 28 29 30 31 32 33 34 35 36 37 38 39 40 41 42 43 44 45 46 47 48 49 50
000
ASUS43 KDTX 011910
RWRMI
MICHIGAN HOURLY REGIONAL WEATHER ROUNDUP
NATIONAL WEATHER SERVICE DETROIT/PONTIAC MI
300 PM EDT FRI AUG 01 2014

NOTE: "FAIR" INDICATES FEW OR NO CLOUDS BELOW 12,000 FEET WITH NO
SIGNIFICANT WEATHER AND/OR OBSTRUCTION TO VISIBILITY.

MIZ047>049-052>055-059>063-066>070-074>076-081>083-012000-
SOUTHEAST LOWER MICHIGAN

CITY           SKY/WX    TMP DP  RH WIND       PRES   REMARKS
ADRIAN         PTSUNNY   75  66  73 S5        30.10F THUNDER
ALMA           MOSUNNY   78  58  50 NW5       30.07F
ANN ARBOR      LGT RAIN  77  65  66 SW7       30.09F
BAD AXE        MOSUNNY   79  64  58 W6        30.09S
DETROIT CITY   MOSUNNY   84  59  42 W9        30.08S
DETROIT        PTSUNNY   79  61  53 SW8       30.09F
FLINT          LGT RAIN  81  60  48 VRB5      30.08F
GROSSE ILE     MOSUNNY   75  66  73 SE8       30.07F
HILLSDALE      MOSUNNY   79  60  51 SW3       30.11F
HOWELL         MOSUNNY   81  53  38 CALM      30.08F

CITY           SKY/WX    TMP DP  RH WIND       PRES   REMARKS
JACKSON        MOSUNNY   81  59  47 NW6       30.08F
LAMBERTVILLE   PTSUNNY   82  61  47 W3        30.09F
LANSING        MOSUNNY   81  58  45 VRB7      30.07F
LAPEER         NOT AVBL
MASON          PTSUNNY   78  60  53 NW12      30.09S
MONROE         PTSUNNY   77  63  61 NW7       30.07F
MT. CLEMENS    MOSUNNY   77  66  69 S12       30.07F
PONTIAC        PTSUNNY   80  56  43 W8        30.08F
PORT HOPE        N/A     71  64  78 E6        30.08S
PORT HURON     PTSUNNY   77  64  65 NW5       30.08F
TRI CITIES     MOSUNNY   81  59  47 W6        30.07F
YPSILANTI      MOSUNNY   84  60  44 SW12      30.09F
$$
MIZ043>046-050>051-056>058-064>065-071>073-077>080-012000-
SOUTHWEST LOWER MICHIGAN

CITY           SKY/WX    TMP DP  RH WIND       PRES   REMARKS
BATTLE CREEK   MOSUNNY   81  58  45 VRB6      30.09F
BENTON HARBOR  MOSUNNY   79  58  48 VRB7      30.09F
BIG RAPIDS     MOSUNNY   71  60  67 SW6G16    30.08S
COLDWATER      MOSUNNY   82  58  44 SW6       30.10S
HOLLAND        SUNNY     81  62  52 VRB7      30.09F
GRAND RAPIDS   MOSUNNY   84  59  42 W9        30.07F
KALAMAZOO      PTSUNNY   79  58  48 W8        30.09F
MARSHALL       PTSUNNY   80  57  44 SW7       30.08F
MUSKEGON       MOSUNNY   77  60  55 SW7       30.08F
$$
MIZ016>042-012000-
NORTHERN LOWER MICHIGAN

CITY           SKY/WX    TMP DP  RH WIND       PRES   REMARKS
ALPENA         PTSUNNY   75  60  59 E9        30.08R
BEAVER ISLAND  SUNNY     74  60  60 W6        30.08S
BELLAIRE       SUNNY     80  47  31 CALM      30.06S
CADILLAC       MOSUNNY   80  55  42 SW8       30.08S
CHARLEVOIX     SUNNY     74  55  52 N6        30.11R
FRANKFORT      CLEAR     76  59  57 W6        30.06F
GAYLORD        PTSUNNY   76  48  37 VRB5      30.09S
GRAYLING       MOSUNNY   79  50  35 W6        30.09S
HARBOR SPRINGS SUNNY     76  54  46 SW6       30.08S
HOUGHTON LAKE  SUNNY     80  51  36 SW5       30.09S
MANISTEE       SUNNY     77  59  53 W10       30.07S
OSCODA         MOSUNNY   72  61  68 E9        30.08R
PELLSTON       SUNNY     79  47  32 VRB3      30.07S
TRAVERSE CITY  PTSUNNY   79  46  31 NE12      30.04F
$$
MIZ007>008-015-012000-
EASTERN UPPER MICHIGAN

CITY           SKY/WX    TMP DP  RH WIND       PRES   REMARKS
KINROSS        SUNNY     72  55  56 N13       30.07S
MACKINAC ISLAN SUNNY     73  50  45 SW3       30.07F
NEWBERRY       SUNNY     73  56  53 N8        30.07S
S. S. MARIE    SUNNY     73  52  47 W8        30.07S
$$
MIZ004>006-011>014-085-012000-
CENTRAL UPPER MICHIGAN

CITY           SKY/WX    TMP DP  RH WIND       PRES   REMARKS
MANISTIQUE     MOSUNNY   70  58  66 S7        30.07S
ESCANABA       SUNNY     73  54  49 SE9       30.06F
MENOMINEE      SUNNY     75  61  60 E9        30.03F
SAWYER-GWINN   SUNNY     68  54  60 NE9       30.09S
$$
MIZ001>003-009>011-084-012000-
WESTERN UPPER MICHIGAN

CITY           SKY/WX    TMP DP  RH WIND       PRES   REMARKS
IRON MOUNTAIN  MOSUNNY   80  48  32 N6        30.05S
HOUGHTON       SUNNY     68  51  54 SE8       30.09R
COPPER HARBOR    N/A     65  53  65 E8        30.09R
$$

ABBREVIATIONS USED IN REMARKS
   TC - TEMPERATURE IN CELSIUS
  WCI - WIND CHILL INDEX
   HX - HEAT INDEX
  VSB - VISIBILITY



USA.gov is the U.S. government's official web portal to all federal, state and local government web resources and services.